Wind_Speed
29 27 27 27 27 27 26 26 25 24 23 22 21 20 20 20 20 20 20 19 19 19 19 18 18 18 18 17 17 17 17 17 17 17 17 17 17 17 17 18 18 18 18
31 30 30 30 29 29 29 28 27 26 25 24 23 23 22 22 21 22 22 21 21 21 20 20 19 19 19 19 19 19 19 19 19 19 19 20 19 19 19 19 20 20 20
33 32 32 32 32 31 31 30 29 28 28 27 26 25 24 24 23 23 23 23 23 22 22 22 21 21 21 21 21 21 21 21 21 21 21 21 21 21 21 21 22 22 21
35 34 33 33 34 34 33 33 32 30 30 29 28 27 27 27 26 25 25 25 25 25 24 24 24 23 23 23 23 23 23 23 23 23 23 23 23 23 23 23 23 23 23
36 36 35 35 35 35 35 34 34 33 32 31 31 30 29 29 29 28 28 28 27 27 27 26 26 26 26 25 25 25 25 25 24 25 25 25 25 25 25 25 25 24 24
37 38 37 37 37 37 36 36 35 35 35 34 34 33 32 31 31 31 30 30 29 29 29 28 28 28 28 28 27 27 27 27 26 26 26 27 27 27 27 26 27 27 26
39 39 39 39 39 38 38 38 37 37 37 37 36 35 35 34 33 32 32 31 30 30 30 30 30 30 30 29 29 29 29 29 29 28 28 28 29 29 28 28 28 28 29
40 40 40 41 41 40 40 40 39 38 38 38 38 38 37 36 35 34 34 34 33 32 32 31 32 32 31 31 30 30 31 31 31 31 30 30 30 30 30 30 30 30 31
41 41 40 41 42 42 42 42 42 40 40 40 39 39 38 38 37 36 35 36 36 35 34 34 34 34 33 33 33 33 33 32 32 33 32 31 31 31 32 32 32 33 33
41 41 41 42 42 43 43 44 43 42 41 41 40 40 40 39 39 38 37 37 38 38 37 36 35 35 35 35 34 34 34 34 34 34 34 34 33 34 34 34 34 35 35
43 43 43 42 43 43 43 44 43 43 42 42 42 41 41 41 41 40 39 38 39 39 38 37 37 36 36 36 36 36 36 36 36 36 36 36 36 36 36 36 36 36 36
43 44 44 44 43 43 44 44 45 44 43 43 43 42 42 41 41 42 41 40 40 40 39 39 38 38 38 38 37 38 38 38 37 37 38 38 38 38 39 39 39 39 39
43 44 45 45 45 44 45 45 45 45 44 43 42 42 42 42 42 42 42 41 40 41 40 40 40 40 40 39 39 39 39 38 39 39 39 40 40 41 41 41 41 41 41
43 44 45 45 45 46 46 46 46 46 45 45 44 44 43 43 43 43 43 43 42 42 41 40 41 41 41 41 40 41 41 40 40 40 40 41 41 42 42 43 43 43 44
43 43 44 45 46 46 46 46 47 47 47 46 46 45 45 44 44 44 44 44 44 44 42 41 42 42 43 43 42 43 42 42 41 42 42 42 43 44 44 44 45 45 46
43 43 44 45 46 47 47 48 48 48 48 47 47 46 46 46 45 45 45 45 45 44 44 43 43 43 44 45 44 45 45 44 44 44 44 45 45 45 45 46 46 47 48
44 44 44 45 46 46 47 48 48 48 49 49 49 48 47 47 47 47 47 46 45 45 45 45 45 45 46 46 46 45 46 46 46 46 46 47 47 46 46 47 48 49 49
45 45 46 46 46 46 46 47 48 48 49 49 49 48 48 48 48 49 48 48 48 48 48 47 47 47 47 47 47 46 46 47 46 47 47 47 48 48 47 48 49 51 52
45 45 46 46 46 46 46 47 47 47 48 49 49 49 49 49 49 49 49 49 49 49 49 49 49 49 49 49 48 49 49 48 48 48 49 49 49 49 49 50 51 52 53
47 47 47 47 47 47 47 47 47 47 48 48 48 49 49 50 50 50 50 50 50 49 49 49 49 49 49 50 50 51 51 50 50 50 51 51 51 51 52 53 54 55 55
48 48 48 48 48 48 48 48 48 48 48 48 48 49 49 50 51 51 51 51 51 50 49 50 50 50 50 50 50 51 51 51 51 51 52 52 53 54 55 56 57 57 58
48 49 49 48 48 48 47 48 49 49 49 50 50 50 49 50 50 51 52 52 52 51 50 50 50 50 51 51 51 51 51 52 52 52 53 54 55 56 57 58 58 59 59
47 47 47 48 48 49 49 49 50 50 50 50 50 50 51 51 52 52 53 53 53 52 52 51 51 51 50 51 51 52 52 53 53 54 55 55 57 57 58 58 58 59 59
48 47 47 47 48 48 50 50 50 51 51 50 50 51 51 52 52 53 53 54 54 54 53 53 52 52 51 51 52 53 53 54 54 55 56 56 56 58 58 58 59 59 59
47 47 47 47 48 48 48 49 50 51 51 51 51 51 51 52 52 52 52 53 53 53 53 53 53 53 52 52 53 53 54 54 54 54 55 56 56 57 56 56 57 57 58
45 45 46 46 46 47 47 48 48 49 50 50 50 50 50 50 51 51 51 52 53 52 53 53 53 53 54 54 54 54 55 55 55 55 56 56 56 56 55 54 55 56 57
Wind_Direction
240 240 239 239 241 240 240 240 241 242 243 245 246 247 247 248 250 251 252 255 256 258 260 263 264 264 266 270 273 276 278 280 281 282 285 286 287 287 288 290 292 295 298
241 240 240 241 243 243 241 241 241 243 245 246 246 248 247 248 250 251 253 255 257 259 259 260 261 263 266 267 270 274 278 280 279 279 282 284 286 287 286 288 289 290 293
242 242 242 243 244 244 243 242 242 243 244 246 247 248 248 249 250 253 254 255 257 258 258 259 260 263 266 267 269 272 275 278 279 280 281 284 284 285 285 285 287 288 290
243 244 243 244 244 244 245 244 243 243 244 246 247 248 250 250 251 254 255 256 257 258 258 258 259 262 264 266 269 271 274 276 278 279 280 283 284 285 285 285 285 286 288
244 244 244 244 244 244 244 245 244 244 245 246 248 249 251 252 253 255 256 258 258 258 258 257 259 261 263 265 268 270 273 276 279 280 281 281 282 284 284 284 283 285 287
245 245 245 245 244 244 244 245 245 245 246 247 248 250 252 254 255 255 256 257 257 258 257 257 259 261 262 264 266 269 272 275 278 280 281 281 281 282 282 282 282 282 285
246 246 246 246 245 245 244 245 246 246 247 248 249 251 253 255 256 254 255 255 256 257 257 258 259 260 261 262 265 268 271 274 277 278 281 280 281 282 282 282 283 283 285
246 246 246 246 245 245 245 245 247 248 248 249 250 252 253 254 255 255 255 255 255 256 257 257 258 259 261 262 264 267 270 274 276 277 279 279 280 281 281 281 282 284 286
246 246 246 246 246 246 246 246 248 250 250 251 251 252 253 254 255 256 256 257 256 256 256 256 257 259 261 263 265 267 269 272 275 276 277 277 278 279 280 281 282 283 284
247 246 246 246 247 247 247 247 248 250 251 251 251 252 253 255 254 255 257 258 258 257 256 255 257 259 260 262 265 267 269 272 274 275 276 277 279 280 280 281 283 284 285
247 246 247 248 248 247 247 247 247 249 251 251 252 253 253 255 255 254 255 257 257 257 256 256 256 258 260 262 265 267 269 272 274 276 277 278 279 280 280 281 282 285 285
248 248 248 249 248 248 248 248 247 249 250 251 252 253 253 254 254 254 255 256 257 257 257 257 258 259 261 263 265 267 270 271 272 275 276 277 278 279 280 281 281 282 283
248 248 248 248 249 249 249 248 247 248 250 251 252 253 253 253 254 255 256 256 258 258 258 258 259 261 263 264 266 268 270 271 272 275 276 277 278 279 279 280 281 281 282
248 248 248 248 249 249 249 249 248 249 250 250 252 254 254 253 254 256 257 257 258 259 259 259 261 263 264 266 269 269 270 272 274 275 276 277 278 278 279 280 281 282 282
248 249 249 249 249 249 249 249 250 250 251 251 252 254 254 253 254 256 257 258 258 258 258 260 264 263 264 267 268 269 270 272 273 274 275 277 278 278 279 280 281 281 282
249 249 249 249 249 249 250 249 249 250 251 251 252 254 255 254 254 256 257 257 256 256 259 261 262 263 264 266 269 269 270 271 272 274 276 277 278 279 280 281 281 281 282
248 248 249 249 249 249 249 249 249 250 251 252 252 253 255 255 256 257 256 255 256 258 260 261 262 263 264 266 268 269 270 271 272 274 276 278 279 280 280 280 281 281 282
247 248 248 249 250 250 251 250 250 250 251 251 253 254 254 255 256 256 257 256 258 259 261 261 262 262 264 266 268 269 271 272 273 274 276 278 279 279 279 281 282 282 282
247 248 249 249 250 251 251 251 251 251 252 252 253 254 255 255 256 257 257 258 259 261 262 262 262 263 265 265 267 268 270 271 273 274 275 277 278 278 279 281 283 283 283
248 248 249 250 250 250 251 251 251 251 252 253 254 254 255 255 256 257 258 260 261 262 263 263 264 264 265 266 267 268 269 270 272 273 275 276 277 278 280 282 283 284 284
249 250 251 252 252 251 251 251 251 251 253 253 255 255 256 257 257 257 258 259 260 262 263 264 264 265 265 266 267 269 270 271 272 274 275 276 277 278 280 282 283 284 284
251 252 252 252 252 251 251 252 252 253 254 255 255 256 256 257 259 259 258 259 260 262 264 264 265 265 265 266 268 270 271 271 273 274 276 277 278 279 281 282 283 283 284
252 253 253 253 252 251 252 253 253 253 253 255 255 257 257 258 260 260 260 260 260 262 264 266 265 265 267 268 269 270 272 273 275 276 277 278 279 280 281 282 283 283 284
252 252 252 253 253 253 253 252 253 254 254 255 257 258 259 260 261 261 260 260 261 262 265 267 267 267 268 269 270 271 273 275 276 278 279 280 281 282 282 282 282 283 284
251 252 253 253 254 254 254 253 254 254 254 255 257 258 259 260 261 261 260 260 261 263 265 268 268 268 269 271 272 273 275 276 277 279 280 281 281 281 282 283 283 284 284
251 252 252 253 253 254 254 255 255 255 255 256 257 258 259 260 260 260 260 260 261 263 266 267 268 270 270 272 273 274 276 277 278 279 280 280 281 281 282 282 283 284 284
Height
5830 5832 5834 5836 5837 5839 5841 5843 5844 5845 5846 5847 5849 5850 5851 5852 5852 5853 5854 5854 5855 5855 5855 5855 5855 5855 5855 5855 5855 5854 5854 5854 5853 5853 5852 5852 5851 5850 5849 5848 5847 5846 5845
5824 5826 5828 5830 5832 5833 5835 5837 5839 5840 5842 5843 5844 5845 5846 5847 5848 5849 5849 5850 5850 5851 5851 5851 5851 5851 5851 5851 5851 5851 5850 5850 5849 5849 5848 5848 5847 5847 5846 5845 5844 5843 5841
5818 5820 5822 5824 5826 5827 5829 5831 5833 5835 5836 5838 5839 5840 5841 5842 5843 5844 5844 5845 5845 5846 5846 5846 5846 5846 5846 5847 5847 5846 5846 5845 5845 5844 5844 5843 5843 5842 5841 5840 5839 5838 5837
5810 5813 5815 5817 5819 5821 5823 5825 5827 5829 5831 5832 5833 5834 5836 5837 5837 5838 5839 5839 5840 5841 5841 5841 5842 5842 5842 5842 5842 5842 5841 5841 5840 5840 5839 5838 5838 5837 5836 5836 5835 5834 5833
5803 5805 5807 5810 5811 5814 5816 5818 5821 5823 5824 5826 5827 5828 5829 5830 5831 5832 5833 5833 5834 5835 5835 5836 5836 5836 5836 5837 5837 5837 5836 5836 5835 5835 5834 5833 5832 5831 5831 5830 5829 5828 5828
5794 5797 5799 5802 5804 5806 5809 5811 5814 5816 5818 5819 5820 5822 5823 5824 5824 5825 5826 5826 5827 5828 5829 5829 5830 5830 5831 5831 5831 5831 5831 5830 5830 5829 5828 5827 5826 5826 5825 5824 5824 5823 5822
5786 5789 5791 5793 5796 5798 5801 5804 5806 5808 5810 5812 5813 5815 5816 5816 5817 5818 5819 5819 5820 5820 5821 5822 5823 5824 5824 5825 5825 5825 5825 5825 5824 5823 5822 5821 5820 5819 5819 5818 5817 5817 5816
5777 5780 5782 5785 5787 5790 5793 5796 5798 5800 5802 5804 5806 5807 5808 5810 5810 5811 5811 5812 5813 5813 5814 5815 5816 5817 5818 5818 5819 5819 5819 5818 5817 5817 5816 5815 5814 5813 5812 5812 5811 5810 5809
5768 5771 5773 5776 5778 5781 5784 5787 5790 5792 5794 5796 5798 5800 5801 5802 5803 5804 5804 5805 5805 5806 5807 5808 5809 5810 5811 5811 5812 5812 5812 5811 5810 5809 5809 5808 5807 5806 5806 5805 5804 5803 5802
5758 5761 5764 5766 5769 5771 5774 5777 5780 5783 5785 5787 5789 5791 5793 5794 5795 5796 5797 5797 5797 5798 5799 5800 5801 5802 5803 5804 5805 5804 5804 5804 5803 5802 5801 5801 5800 5799 5798 5798 5797 5796 5795
5748 5751 5754 5757 5759 5762 5764 5767 5770 5773 5776 5778 5780 5782 5783 5785 5786 5788 5789 5789 5790 5790 5791 5792 5793 5795 5796 5796 5797 5796 5796 5796 5796 5795 5794 5793 5792 5791 5791 5790 5789 5788 5787
5738 5741 5744 5746 5749 5752 5755 5757 5760 5763 5766 5768 5770 5772 5774 5775 5777 5778 5780 5781 5782 5783 5783 5784 5785 5787 5788 5788 5788 5788 5788 5788 5787 5787 5786 5785 5784 5783 5783 5782 5781 5780 5778
5728 5731 5734 5736 5739 5742 5745 5747 5750 5753 5756 5758 5761 5763 5764 5766 5768 5769 5771 5772 5773 5774 5775 5776 5777 5778 5779 5779 5780 5780 5780 5779 5779 5778 5777 5776 5776 5775 5774 5773 5772 5770 5769
5718 5720 5723 5726 5729 5731 5734 5737 5740 5743 5746 5748 5751 5753 5755 5756 5758 5760 5762 5763 5765 5766 5766 5767 5768 5769 5770 5770 5770 5771 5771 5771 5770 5769 5768 5767 5766 5765 5764 5763 5762 5761 5759
5708 5710 5713 5715 5718 5721 5724 5727 5730 5732 5735 5738 5740 5742 5744 5746 5748 5750 5751 5753 5755 5756 5757 5758 5759 5760 5760 5760 5760 5761 5761 5761 5760 5760 5759 5758 5757 5756 5755 5753 5752 5751 5749
5697 5700 5702 5704 5707 5710 5713 5716 5719 5722 5724 5727 5730 5732 5734 5736 5738 5739 5741 5743 5745 5746 5748 5749 5750 5750 5750 5750 5751 5751 5751 5751 5751 5750 5749 5748 5747 5746 5744 5743 5741 5739 5738
5687 5689 5691 5694 5696 5699 5701 5704 5707 5710 5713 5716 5719 5721 5723 5725 5727 5729 5731 5732 5734 5736 5737 5738 5739 5739 5740 5740 5740 5740 5740 5740 5740 5739 5738 5737 5736 5734 5732 5731 5729 5728 5726
5675 5678 5680 5683 5685 5688 5691 5693 5696 5699 5702 5705 5707 5710 5712 5714 5717 5719 5720 5722 5723 5725 5726 5727 5728 5728 5728 5729 5729 5729 5729 5728 5728 5728 5726 5725 5724 5722 5721 5719 5717 5715 5713
5664 5667 5669 5672 5675 5677 5680 5682 5685 5688 5691 5693 5696 5698 5701 5703 5705 5708 5709 5711 5712 5713 5714 5715 5716 5717 5717 5717 5718 5718 5717 5717 5716 5715 5714 5713 5712 5710 5708 5706 5704 5702 5700
5652 5655 5658 5661 5663 5666 5668 5671 5674 5677 5679 5682 5684 5687 5689 5691 5694 5696 5698 5699 5700 5701 5702 5703 5704 5705 5706 5706 5706 5706 5706 5705 5705 5704 5702 5701 5699 5697 5695 5693 5690 5687 5685
5640 5643 5646 5649 5652 5654 5657 5660 5663 5665 5668 5670 5672 5674 5676 5679 5681 5684 5686 5687 5689 5689 5690 5691 5692 5693 5693 5694 5694 5694 5693 5693 5692 5691 5689 5688 5686 5684 5681 5678 5675 5672 5670
5628 5631 5634 5637 5639 5642 5645 5647 5650 5653 5655 5658 5660 5662 5664 5667 5669 5671 5673 5675 5676 5677 5678 5678 5680 5680 5681 5681 5682 5681 5680 5680 5680 5678 5676 5674 5672 5670 5667 5664 5660 5656 5654
5616 5618 5621 5624 5627 5630 5632 5635 5637 5640 5643 5645 5647 5650 5652 5655 5656 5658 5660 5662 5664 5665 5666 5667 5667 5668 5669 5669 5669 5668 5667 5666 5665 5664 5662 5660 5657 5654 5651 5648 5644 5640 5637
5604 5606 5609 5611 5614 5617 5619 5622 5624 5627 5630 5632 5635 5637 5639 5641 5643 5645 5647 5649 5651 5652 5653 5654 5655 5655 5655 5655 5655 5654 5653 5652 5651 5649 5646 5645 5642 5639 5636 5632 5628 5624 5621
5591 5594 5597 5599 5602 5604 5607 5609 5611 5614 5616 5619 5622 5624 5626 5628 5630 5632 5634 5636 5638 5639 5639 5640 5641 5641 5641 5640 5640 5639 5639 5637 5636 5634 5631 5629 5627 5624 5621 5617 5613 5609 5605
5579 5582 5584 5587 5589 5592 5594 5596 5598 5601 5603 5606 5609 5611 5613 5615 5616 5618 5620 5622 5623 5625 5626 5626 5626 5626 5626 5626 5625 5625 5624 5622 5620 5619 5616 5614 5611 5607 5607 5604 5599 5594 5590